When you browse on this site, cookies collect data to enhance your experience and personalize the content and advertising you see.
Visit our Privacy Policy to learn more. By continuing to use the site, you agree to this use of cookies and data.
  • In Portugal
  • List of Countries
  • For 7 days
  • Water Temperature
  • Satellite Maps
  • Weather Map
  • Weather Widgets
  • user-avatar
    Login

    Hourly Weather Gislinek

    Today, 19 February, Tuesday

    Time Temperature Precipitation Wind Pressure Humidity
    00:00 +1°C° 0 mm 4 mps 754 mmHg 87%
    01:00 +2°C° 0 mm 3 mps 754 mmHg 87%
    02:00 +2°C° 0 mm 3 mps 753 mmHg 86%
    03:00 +2°C° 0 mm 3 mps 753 mmHg 85%
    04:00 +1°C° 0 mm 3 mps 752 mmHg 84%
    05:00 0°C° 0 mm 4 mps 752 mmHg 84%
    06:00 0°C° 0 mm 4 mps 751 mmHg 84%
    07:00 0°C° 0 mm 4 mps 751 mmHg 84%
    08:00 +1°C° 0 mm 5 mps 751 mmHg 79%
    09:00 +3°C° 0 mm 5 mps 750 mmHg 74%
    10:00 +4°C° 0 mm 6 mps 750 mmHg 70%
    11:00 +5°C° 0 mm 6 mps 750 mmHg 68%
    12:00 +7°C° 0 mm 6 mps 750 mmHg 67%
    13:00 +8°C° 0 mm 6 mps 749 mmHg 66%
    14:00 +7°C° 0.1 mm 6 mps 749 mmHg 69%
    15:00 +7°C° 0.1 mm 5 mps 749 mmHg 73%
    16:00 +7°C° 0.1 mm 5 mps 749 mmHg 76%
    17:00 +6°C° 0.2 mm 4 mps 749 mmHg 79%
    18:00 +6°C° 0.2 mm 4 mps 749 mmHg 81%
    19:00 +5°C° 0.2 mm 4 mps 749 mmHg 83%
    20:00 +5°C° 0 mm 4 mps 749 mmHg 83%
    21:00 +3°C° 0 mm 5 mps 749 mmHg 83%
    22:00 +3°C° 0 mm 5 mps 749 mmHg 83%
    23:00 +3°C° 0.1 mm 5 mps 749 mmHg 83%

    Tomorrow, 20 February, Wednesday

    Time Temperature Precipitation Wind Pressure Humidity
    00:00 +3°C° 0.1 mm 5 mps 749 mmHg 84%
    01:00 +3°C° 0.1 mm 5 mps 749 mmHg 84%
    02:00 +3°C° 0.1 mm 6 mps 749 mmHg 83%
    03:00 +2°C° 0.1 mm 6 mps 749 mmHg 82%
    04:00 +2°C° 0.1 mm 6 mps 749 mmHg 81%
    05:00 +2°C° 0.1 mm 6 mps 749 mmHg 81%
    06:00 +2°C° 0.1 mm 6 mps 750 mmHg 80%
    07:00 +2°C° 0.1 mm 6 mps 750 mmHg 80%
    08:00 +2°C° 0 mm 7 mps 750 mmHg 77%
    09:00 +3°C° 0 mm 7 mps 751 mmHg 74%
    10:00 +2°C° 0 mm 8 mps 751 mmHg 71%
    11:00 +2°C° 0 mm 8 mps 752 mmHg 71%
    12:00 +3°C° 0 mm 7 mps 752 mmHg 70%
    13:00 +4°C° 0 mm 7 mps 753 mmHg 70%
    14:00 +3°C° 0 mm 7 mps 753 mmHg 72%
    15:00 +3°C° 0 mm 6 mps 753 mmHg 74%
    16:00 +3°C° 0 mm 6 mps 754 mmHg 76%
    17:00 +3°C° 0 mm 5 mps 754 mmHg 77%
    18:00 +2°C° 0 mm 5 mps 755 mmHg 79%
    19:00 +3°C° 0 mm 4 mps 755 mmHg 81%
    20:00 +3°C° 0 mm 3 mps 756 mmHg 82%
    21:00 +2°C° 0 mm 3 mps 756 mmHg 82%
    22:00 +3°C° 0 mm 2 mps 756 mmHg 83%
    23:00 +3°C° 0 mm 2 mps 756 mmHg 85%

    Day after tomorrow, 21 February, Thursday

    Time Temperature Precipitation Wind Pressure Humidity
    00:00 +3°C° 0 mm 1 mps 757 mmHg 86%
    01:00 +3°C° 0 mm 1 mps 757 mmHg 87%
    02:00 +3°C° 0.1 mm 1 mps 757 mmHg 90%
    03:00 +3°C° 0.1 mm 1 mps 756 mmHg 92%
    04:00 +2°C° 0.1 mm 2 mps 756 mmHg 94%
    05:00 +2°C° 0.3 mm 2 mps 756 mmHg 95%
    06:00 +3°C° 0.3 mm 2 mps 756 mmHg 96%
    07:00 +4°C° 0.3 mm 1 mps 756 mmHg 97%
    08:00 +3°C° 0.4 mm 2 mps 756 mmHg 97%
    09:00 +3°C° 0.4 mm 2 mps 756 mmHg 96%
    10:00 +4°C° 0.4 mm 2 mps 756 mmHg 95%
    11:00 +4°C° 0.6 mm 2 mps 755 mmHg 95%
    12:00 +4°C° 0.6 mm 2 mps 755 mmHg 95%
    13:00 +5°C° 0.6 mm 2 mps 755 mmHg 94%
    14:00 +5°C° 0.2 mm 2 mps 755 mmHg 94%
    15:00 +5°C° 0.2 mm 2 mps 755 mmHg 94%
    16:00 +5°C° 0.2 mm 2 mps 755 mmHg 94%
    17:00 +4°C° 0.4 mm 2 mps 755 mmHg 95%
    18:00 +4°C° 0.4 mm 2 mps 755 mmHg 95%
    19:00 +3°C° 0.4 mm 2 mps 755 mmHg 96%
    20:00 +1°C° 1 mm 3 mps 756 mmHg 93%
    21:00 -1°C° 1 mm 5 mps 757 mmHg 91%
    22:00 -3°C° 1 mm 6 mps 757 mmHg 89%
    23:00 -4°C° 0 mm 6 mps 758 mmHg 87%

    22 February, Friday

    Time Temperature Precipitation Wind Pressure Humidity
    00:00 -4°C° 0 mm 5 mps 759 mmHg 86%
    01:00 -5°C° 0 mm 5 mps 760 mmHg 84%
    02:00 -5°C° 0 mm 5 mps 761 mmHg 81%
    03:00 -6°C° 0 mm 5 mps 762 mmHg 78%
    04:00 -6°C° 0 mm 5 mps 763 mmHg 75%
    05:00 -6°C° 0 mm 5 mps 764 mmHg 74%
    06:00 -5°C° 0 mm 4 mps 765 mmHg 72%
    07:00 -7°C° 0 mm 4 mps 766 mmHg 71%
    08:00 -5°C° 0 mm 4 mps 767 mmHg 67%
    09:00 -5°C° 0 mm 4 mps 768 mmHg 64%
    10:00 -4°C° 0 mm 4 mps 769 mmHg 60%
    11:00 -4°C° 0 mm 3 mps 769 mmHg 57%
    12:00 -2°C° 0 mm 3 mps 769 mmHg 54%
    13:00 -2°C° 0 mm 3 mps 770 mmHg 51%
    14:00 -2°C° 0 mm 3 mps 770 mmHg 52%
    15:00 -2°C° 0 mm 3 mps 771 mmHg 54%
    16:00 -2°C° 0 mm 3 mps 771 mmHg 56%
    17:00 -3°C° 0 mm 2 mps 771 mmHg 60%
    18:00 -4°C° 0 mm 2 mps 771 mmHg 64%
    19:00 -4°C° 0 mm 2 mps 772 mmHg 68%
    20:00 -2°C° 0 mm 1 mps 772 mmHg 66%
    21:00 -2°C° 0 mm 1 mps 772 mmHg 65%
    22:00 -2°C° 0 mm 1 mps 772 mmHg 64%
    23:00 -2°C° 0 mm 1 mps 772 mmHg 64%

    23 February, Saturday

    Time Temperature Precipitation Wind Pressure Humidity
    00:00 -2°C° 0 mm 1 mps 772 mmHg 64%
    01:00 -2°C° 0 mm 1 mps 772 mmHg 64%
    02:00 -2°C° 0 mm 1 mps 772 mmHg 65%
    03:00 -2°C° 0 mm 1 mps 772 mmHg 66%
    04:00 -2°C° 0 mm 1 mps 772 mmHg 67%
    05:00 -2°C° 0 mm 1 mps 772 mmHg 67%
    06:00 -2°C° 0 mm 1 mps 771 mmHg 68%
    07:00 -2°C° 0 mm 1 mps 771 mmHg 69%
    08:00 -1°C° 0 mm 1 mps 771 mmHg 65%
    09:00 0°C° 0 mm 1 mps 771 mmHg 62%
    10:00 +1°C° 0 mm 1 mps 771 mmHg 59%
    11:00 +1°C° 0 mm 1 mps 771 mmHg 57%
    12:00 -1°C° 0 mm 2 mps 771 mmHg 56%
    13:00 +1°C° 0 mm 2 mps 770 mmHg 54%
    14:00 +1°C° 0 mm 2 mps 770 mmHg 54%
    15:00 +1°C° 0 mm 2 mps 770 mmHg 55%
    16:00 +2°C° 0 mm 1 mps 769 mmHg 55%
    17:00 +1°C° 0 mm 1 mps 769 mmHg 57%
    18:00 +1°C° 0 mm 1 mps 769 mmHg 60%
    19:00 +1°C° 0 mm 1 mps 769 mmHg 62%
    20:00 +1°C° 0 mm 1 mps 769 mmHg 64%
    21:00 -1°C° 0 mm 2 mps 769 mmHg 67%
    22:00 -1°C° 0 mm 2 mps 769 mmHg 69%
    23:00 -1°C° 0 mm 2 mps 769 mmHg 70%

    24 February, Sunday

    Time Temperature Precipitation Wind Pressure Humidity
    00:00 -1°C° 0 mm 2 mps 769 mmHg 71%
    01:00 +1°C° 0 mm 1 mps 769 mmHg 72%
    02:00 0°C° 0 mm 1 mps 769 mmHg 74%
    03:00 0°C° 0 mm 1 mps 769 mmHg 76%
    04:00 0°C° 0 mm 1 mps 769 mmHg 77%
    05:00 0°C° 0 mm 1 mps 769 mmHg 78%
    06:00 -2°C° 0 mm 2 mps 770 mmHg 79%
    07:00 -2°C° 0 mm 2 mps 770 mmHg 79%
    08:00 -1°C° 0 mm 2 mps 770 mmHg 76%
    09:00 +1°C° 0 mm 2 mps 770 mmHg 73%
    10:00 +2°C° 0 mm 2 mps 771 mmHg 70%
    11:00 +3°C° 0 mm 2 mps 771 mmHg 70%
    12:00 +3°C° 0 mm 2 mps 771 mmHg 69%
    13:00 +4°C° 0 mm 2 mps 771 mmHg 68%
    14:00 +4°C° 0 mm 2 mps 770 mmHg 72%
    15:00 +4°C° 0 mm 2 mps 770 mmHg 75%
    16:00 +3°C° 0 mm 2 mps 770 mmHg 79%
    17:00 +3°C° 0 mm 2 mps 770 mmHg 82%
    18:00 +2°C° 0 mm 2 mps 770 mmHg 85%
    19:00 +1°C° 0 mm 2 mps 770 mmHg 88%
    20:00 0°C° 0 mm 3 mps 769 mmHg 89%
    21:00 0°C° 0 mm 3 mps 769 mmHg 91%
    22:00 0°C° 0 mm 3 mps 769 mmHg 92%
    23:00 0°C° 0 mm 3 mps 769 mmHg 93%
    Show more